QPF
0.00 0.00 0.00 0.00 0.00 0.00 0.00 0.00 0.00 0.01 0.01 0.01 0.01 0.01 0.01 0.01 0.01 0.00 0.00 0.00 0.00 0.00 0.00 0.00 0.01 0.01 0.02 0.02 0.01 0.00 0.01 0.02 0.02 0.01 0.02 0.04 0.07 0.11 0.12 0.09 0.05 0.04 0.05 0.04
0.00 0.00 0.00 0.00 0.00 0.00 0.00 0.00 0.00 0.01 0.01 0.01 0.01 0.01 0.01 0.01 0.01 0.00 0.00 0.00 0.00 0.00 0.01 0.01 0.01 0.01 0.01 0.01 0.01 0.01 0.01 0.02 0.01 0.01 0.01 0.03 0.09 0.11 0.10 0.06 0.04 0.04 0.04 0.04
0.00 0.00 0.00 0.00 0.00 0.00 0.00 0.00 0.00 0.00 0.00 0.01 0.01 0.01 0.01 0.01 0.01 0.01 0.01 0.01 0.00 0.00 0.00 0.00 0.01 0.01 0.01 0.01 0.01 0.01 0.01 0.01 0.01 0.01 0.01 0.01 0.05 0.06 0.03 0.02 0.03 0.04 0.05 0.04
0.00 0.00 0.00 0.00 0.00 0.00 0.00 0.00 0.00 0.00 0.00 0.00 0.01 0.01 0.01 0.01 0.01 0.01 0.01 0.01 0.00 0.00 0.00 0.01 0.01 0.01 0.01 0.01 0.01 0.01 0.01 0.01 0.02 0.02 0.02 0.01 0.01 0.01 0.01 0.01 0.02 0.03 0.04 0.03
0.00 0.00 0.00 0.00 0.00 0.00 0.00 0.00 0.00 0.00 0.00 0.01 0.01 0.01 0.01 0.01 0.01 0.01 0.01 0.00 0.00 0.00 0.00 0.01 0.01 0.02 0.01 0.01 0.01 0.01 0.01 0.01 0.02 0.02 0.02 0.01 0.01 0.00 0.00 0.01 0.01 0.02 0.02 0.02
0.00 0.00 0.00 0.00 0.00 0.00 0.00 0.00 0.00 0.00 0.00 0.01 0.01 0.01 0.00 0.00 0.00 0.01 0.01 0.01 0.01 0.01 0.01 0.01 0.01 0.02 0.02 0.01 0.01 0.02 0.02 0.01 0.02 0.02 0.02 0.01 0.01 0.00 0.00 0.01 0.01 0.01 0.01 0.01
0.00 0.00 0.00 0.00 0.00 0.00 0.00 0.00 0.01 0.00 0.01 0.00 0.01 0.01 0.00 0.00 0.00 0.00 0.01 0.01 0.01 0.01 0.01 0.01 0.01 0.02 0.02 0.02 0.01 0.01 0.02 0.02 0.02 0.02 0.01 0.01 0.01 0.00 0.00 0.01 0.01 0.00 0.00 0.00
0.00 0.00 0.00 0.00 0.00 0.00 0.00 0.00 0.00 0.00 0.00 0.00 0.01 0.01 0.00 0.00 0.00 0.00 0.00 0.01 0.01 0.02 0.03 0.03 0.02 0.01 0.03 0.03 0.02 0.01 0.01 0.01 0.02 0.01 0.02 0.02 0.01 0.00 0.00 0.01 0.01 0.00 0.00 0.00
0.00 0.00 0.00 0.00 0.00 0.00 0.00 0.01 0.00 0.01 0.01 0.01 0.01 0.00 0.00 0.00 0.00 0.00 0.01 0.01 0.01 0.01 0.01 0.02 0.02 0.02 0.04 0.04 0.04 0.03 0.03 0.03 0.03 0.02 0.03 0.02 0.01 0.01 0.01 0.01 0.00 0.00 0.01 0.00
0.00 0.00 0.00 0.00 0.00 0.00 0.00 0.00 0.00 0.00 0.00 0.01 0.01 0.00 0.00 0.00 0.00 0.00 0.01 0.01 0.02 0.02 0.02 0.02 0.05 0.07 0.07 0.07 0.08 0.06 0.04 0.03 0.03 0.03 0.03 0.03 0.01 0.01 0.01 0.01 0.01 0.01 0.01 0.01
0.00 0.00 0.00 0.00 0.00 0.00 0.00 0.00 0.00 0.00 0.00 0.00 0.01 0.00 0.00 0.00 0.00 0.00 0.01 0.03 0.02 0.03 0.03 0.03 0.05 0.07 0.12 0.10 0.12 0.11 0.08 0.05 0.03 0.02 0.03 0.02 0.01 0.01 0.01 0.01 0.01 0.01 0.01 0.01
0.00 0.00 0.00 0.00 0.00 0.00 0.00 0.00 0.00 0.00 0.00 0.00 0.00 0.00 0.00 0.00 0.01 0.01 0.01 0.02 0.02 0.03 0.03 0.04 0.04 0.04 0.09 0.13 0.14 0.13 0.11 0.08 0.04 0.03 0.02 0.02 0.02 0.02 0.02 0.02 0.02 0.02 0.02 0.02
0.00 0.00 0.00 0.00 0.00 0.00 0.00 0.00 0.00 0.00 0.00 0.00 0.00 0.00 0.00 0.01 0.01 0.01 0.01 0.01 0.01 0.02 0.03 0.04 0.05 0.04 0.06 0.14 0.16 0.12 0.09 0.06 0.03 0.03 0.03 0.04 0.05 0.07 0.08 0.08 0.07 0.04 0.03 0.02
0.00 0.00 0.00 0.00 0.00 0.00 0.00 0.00 0.00 0.00 0.00 0.00 0.00 0.00 0.00 0.01 0.00 0.00 0.01 0.01 0.01 0.02 0.02 0.02 0.05 0.06 0.07 0.08 0.06 0.06 0.06 0.04 0.03 0.04 0.05 0.05 0.07 0.10 0.12 0.12 0.08 0.05 0.03 0.02
0.00 0.00 0.00 0.00 0.00 0.00 0.00 0.00 0.00 0.00 0.00 0.00 0.00 0.00 0.00 0.00 0.01 0.01 0.01 0.02 0.01 0.02 0.01 0.02 0.04 0.03 0.03 0.03 0.03 0.02 0.02 0.03 0.04 0.05 0.07 0.08 0.10 0.11 0.12 0.10 0.07 0.04 0.03 0.03
0.00 0.00 0.00 0.00 0.00 0.00 0.00 0.00 0.00 0.00 0.00 0.00 0.00 0.00 0.01 0.00 0.00 0.01 0.01 0.02 0.01 0.02 0.02 0.02 0.02 0.02 0.02 0.02 0.01 0.01 0.02 0.04 0.06 0.06 0.08 0.10 0.11 0.09 0.07 0.05 0.04 0.03 0.03 0.03
0.00 0.00 0.00 0.00 0.00 0.00 0.00 0.00 0.00 0.00 0.00 0.00 0.00 0.01 0.01 0.01 0.01 0.01 0.02 0.02 0.02 0.03 0.03 0.03 0.03 0.03 0.02 0.02 0.02 0.03 0.03 0.05 0.08 0.10 0.10 0.10 0.09 0.07 0.06 0.05 0.04 0.03 0.03 0.03
0.00 0.00 0.00 0.00 0.01 0.00 0.00 0.00 0.00 0.01 0.01 0.01 0.01 0.01 0.01 0.01 0.02 0.02 0.02 0.04 0.04 0.05 0.05 0.05 0.03 0.03 0.02 0.02 0.03 0.04 0.06 0.08 0.09 0.09 0.08 0.08 0.09 0.10 0.11 0.10 0.07 0.06 0.06 0.05
0.00 0.00 0.01 0.01 0.01 0.00 0.00 0.01 0.01 0.01 0.01 0.01 0.01 0.01 0.02 0.03 0.03 0.02 0.02 0.03 0.06 0.09 0.07 0.06 0.05 0.04 0.04 0.04 0.03 0.04 0.05 0.05 0.06 0.07 0.07 0.11 0.13 0.11 0.10 0.10 0.09 0.09 0.09 0.08
0.00 0.00 0.00 0.01 0.01 0.01 0.01 0.01 0.01 0.01 0.01 0.02 0.02 0.02 0.03 0.03 0.03 0.01 0.02 0.06 0.12 0.10 0.07 0.05 0.04 0.03 0.03 0.04 0.04 0.04 0.05 0.05 0.05 0.07 0.11 0.13 0.14 0.13 0.11 0.10 0.09 0.08 0.08 0.08
0.00 0.00 0.00 0.00 0.00 0.00 0.01 0.01 0.01 0.01 0.01 0.01 0.02 0.03 0.03 0.03 0.04 0.04 0.03 0.04 0.06 0.05 0.05 0.05 0.05 0.04 0.03 0.03 0.03 0.06 0.06 0.07 0.08 0.08 0.09 0.14 0.13 0.12 0.11 0.10 0.09 0.08 0.08 0.07
0.00 0.00 0.00 0.01 0.01 0.01 0.01 0.01 0.01 0.01 0.01 0.01 0.01 0.02 0.02 0.03 0.04 0.05 0.04 0.04 0.05 0.05 0.05 0.04 0.03 0.03 0.04 0.03 0.03 0.03 0.04 0.05 0.06 0.06 0.06 0.08 0.08 0.08 0.09 0.08 0.08 0.08 0.07 0.08
0.01 0.01 0.01 0.01 0.01 0.01 0.01 0.01 0.01 0.01 0.01 0.01 0.01 0.01 0.02 0.02 0.02 0.03 0.03 0.03 0.03 0.03 0.03 0.02 0.01 0.01 0.02 0.02 0.02 0.02 0.03 0.04 0.05 0.05 0.07 0.09 0.10 0.08 0.08 0.08 0.08 0.08 0.08 0.10
0.02 0.02 0.03 0.04 0.04 0.04 0.03 0.02 0.01 0.01 0.01 0.01 0.01 0.01 0.01 0.02 0.02 0.01 0.02 0.02 0.02 0.02 0.02 0.02 0.01 0.01 0.01 0.01 0.01 0.01 0.02 0.02 0.02 0.03 0.04 0.04 0.05 0.05 0.05 0.06 0.06 0.06 0.08 0.10
0.03 0.04 0.07 0.09 0.08 0.08 0.05 0.03 0.02 0.01 0.00 0.00 0.01 0.01 0.01 0.02 0.02 0.02 0.02 0.03 0.03 0.04 0.04 0.03 0.02 0.02 0.01 0.01 0.01 0.02 0.02 0.02 0.01 0.02 0.02 0.01 0.02 0.03 0.04 0.04 0.05 0.05 0.06 0.08
0.05 0.08 0.12 0.11 0.07 0.06 0.04 0.03 0.02 0.02 0.01 0.01 0.01 0.01 0.02 0.03 0.03 0.03 0.03 0.04 0.05 0.04 0.04 0.03 0.03 0.02 0.02 0.02 0.02 0.02 0.02 0.03 0.02 0.01 0.02 0.02 0.02 0.03 0.04 0.03 0.03 0.04 0.05 0.05
MSLP
1007.55 1008.56 1009.36 1009.95 1010.35 1010.64 1010.87 1011.10 1011.33 1011.57 1011.76 1011.87 1011.86 1011.71 1011.44 1011.10 1010.77 1010.50 1010.36 1010.39 1010.57 1010.87 1011.26 1011.65 1012.00 1012.27 1012.47 1012.61 1012.72 1012.85 1013.01 1013.22 1013.47 1013.72 1013.94 1014.10 1014.17 1014.15 1014.06 1013.93 1013.80 1013.71 1013.67 1013.72
1008.31 1009.15 1009.75 1010.14 1010.38 1010.57 1010.77 1011.03 1011.36 1011.71 1012.01 1012.20 1012.21 1012.03 1011.68 1011.21 1010.73 1010.33 1010.09 1010.05 1010.21 1010.54 1010.96 1011.40 1011.80 1012.10 1012.31 1012.44 1012.53 1012.64 1012.80 1013.03 1013.32 1013.64 1013.94 1014.17 1014.30 1014.33 1014.26 1014.13 1013.99 1013.87 1013.83 1013.86
1008.71 1009.33 1009.71 1009.91 1010.02 1010.16 1010.39 1010.75 1011.23 1011.74 1012.19 1012.48 1012.52 1012.30 1011.84 1011.22 1010.57 1010.01 1009.63 1009.50 1009.62 1009.95 1010.42 1010.92 1011.37 1011.72 1011.96 1012.11 1012.22 1012.34 1012.52 1012.79 1013.15 1013.54 1013.93 1014.25 1014.46 1014.55 1014.52 1014.42 1014.28 1014.16 1014.11 1014.13
1008.74 1009.12 1009.28 1009.32 1009.35 1009.50 1009.83 1010.36 1011.04 1011.75 1012.37 1012.76 1012.83 1012.55 1011.96 1011.16 1010.31 1009.55 1009.01 1008.77 1008.83 1009.16 1009.66 1010.23 1010.76 1011.18 1011.48 1011.68 1011.82 1011.97 1012.19 1012.51 1012.93 1013.40 1013.87 1014.29 1014.59 1014.75 1014.78 1014.71 1014.60 1014.49 1014.44 1014.46
1008.52 1008.65 1008.61 1008.53 1008.54 1008.75 1009.23 1009.98 1010.89 1011.83 1012.61 1013.09 1013.17 1012.81 1012.06 1011.06 1009.99 1009.02 1008.31 1007.94 1007.95 1008.27 1008.81 1009.45 1010.07 1010.58 1010.96 1011.21 1011.40 1011.59 1011.85 1012.21 1012.67 1013.21 1013.75 1014.25 1014.63 1014.87 1014.96 1014.94 1014.86 1014.79 1014.75 1014.80
1008.18 1008.08 1007.88 1007.73 1007.76 1008.10 1008.77 1009.75 1010.90 1012.04 1012.96 1013.51 1013.56 1013.09 1012.18 1010.97 1009.68 1008.50 1007.62 1007.15 1007.09 1007.41 1008.00 1008.72 1009.42 1010.03 1010.48 1010.80 1011.04 1011.26 1011.54 1011.92 1012.41 1012.98 1013.57 1014.12 1014.57 1014.87 1015.03 1015.07 1015.04 1015.00 1015.00 1015.07
1007.89 1007.60 1007.29 1007.11 1007.21 1007.69 1008.56 1009.74 1011.10 1012.39 1013.41 1013.98 1013.98 1013.39 1012.31 1010.90 1009.41 1008.07 1007.05 1006.49 1006.40 1006.73 1007.37 1008.15 1008.94 1009.62 1010.14 1010.51 1010.77 1011.01 1011.29 1011.66 1012.15 1012.73 1013.35 1013.93 1014.43 1014.78 1015.00 1015.10 1015.12 1015.13 1015.18 1015.29
1007.76 1007.34 1006.97 1006.81 1007.00 1007.61 1008.63 1009.98 1011.45 1012.83 1013.88 1014.41 1014.32 1013.61 1012.39 1010.83 1009.20 1007.75 1006.65 1006.04 1005.95 1006.30 1006.98 1007.82 1008.67 1009.40 1009.97 1010.36 1010.63 1010.86 1011.12 1011.47 1011.95 1012.51 1013.13 1013.73 1014.25 1014.65 1014.91 1015.07 1015.14 1015.20 1015.29 1015.44
1007.86 1007.37 1006.99 1006.87 1007.14 1007.84 1008.95 1010.37 1011.87 1013.24 1014.23 1014.68 1014.49 1013.66 1012.33 1010.70 1009.01 1007.52 1006.42 1005.83 1005.76 1006.15 1006.87 1007.74 1008.62 1009.37 1009.94 1010.33 1010.59 1010.79 1011.02 1011.35 1011.80 1012.35 1012.96 1013.56 1014.10 1014.54 1014.84 1015.04 1015.16 1015.26 1015.39 1015.57
1008.15 1007.66 1007.32 1007.25 1007.56 1008.29 1009.41 1010.78 1012.21 1013.47 1014.33 1014.65 1014.33 1013.43 1012.06 1010.42 1008.77 1007.34 1006.32 1005.80 1005.79 1006.23 1006.97 1007.86 1008.72 1009.45 1010.00 1010.36 1010.59 1010.77 1010.98 1011.29 1011.72 1012.27 1012.88 1013.49 1014.05 1014.51 1014.84 1015.07 1015.22 1015.35 1015.50 1015.70
1008.58 1008.14 1007.85 1007.82 1008.14 1008.84 1009.86 1011.09 1012.33 1013.38 1014.05 1014.20 1013.78 1012.83 1011.48 1009.94 1008.42 1007.15 1006.27 1005.88 1005.97 1006.46 1007.21 1008.07 1008.89 1009.57 1010.07 1010.39 1010.59 1010.76 1010.97 1011.28 1011.73 1012.29 1012.91 1013.55 1014.13 1014.60 1014.95 1015.19 1015.35 1015.49 1015.63 1015.83
1009.04 1008.69 1008.47 1008.46 1008.75 1009.34 1010.19 1011.18 1012.15 1012.93 1013.36 1013.33 1012.82 1011.88 1010.62 1009.25 1007.94 1006.90 1006.23 1006.00 1006.20 1006.73 1007.47 1008.28 1009.03 1009.63 1010.07 1010.34 1010.53 1010.71 1010.95 1011.31 1011.80 1012.41 1013.07 1013.74 1014.33 1014.82 1015.17 1015.40 1015.55 1015.66 1015.78 1015.96
1009.47 1009.22 1009.06 1009.06 1009.28 1009.72 1010.33 1011.04 1011.69 1012.16 1012.34 1012.14 1011.56 1010.66 1009.56 1008.40 1007.36 1006.59 1006.16 1006.11 1006.41 1006.97 1007.69 1008.42 1009.08 1009.59 1009.96 1010.21 1010.41 1010.62 1010.93 1011.36 1011.93 1012.61 1013.33 1014.02 1014.64 1015.12 1015.45 1015.66 1015.77 1015.84 1015.93 1016.06
1009.83 1009.68 1009.58 1009.57 1009.69 1009.95 1010.31 1010.70 1011.03 1011.19 1011.12 1010.78 1010.17 1009.34 1008.42 1007.51 1006.76 1006.26 1006.06 1006.18 1006.57 1007.15 1007.81 1008.46 1009.02 1009.45 1009.77 1010.01 1010.24 1010.52 1010.92 1011.46 1012.12 1012.87 1013.65 1014.37 1014.99 1015.45 1015.75 1015.91 1015.98 1016.00 1016.03 1016.12
1010.14 1010.08 1010.01 1009.98 1010.00 1010.08 1010.19 1010.28 1010.30 1010.20 1009.92 1009.45 1008.83 1008.10 1007.36 1006.71 1006.22 1005.97 1005.98 1006.24 1006.69 1007.26 1007.86 1008.42 1008.89 1009.25 1009.53 1009.79 1010.07 1010.44 1010.95 1011.60 1012.36 1013.18 1014.00 1014.74 1015.34 1015.77 1016.02 1016.12 1016.12 1016.09 1016.08 1016.13
1010.46 1010.44 1010.40 1010.33 1010.25 1010.17 1010.06 1009.90 1009.67 1009.34 1008.89 1008.35 1007.74 1007.11 1006.54 1006.10 1005.84 1005.79 1005.96 1006.31 1006.79 1007.33 1007.86 1008.34 1008.73 1009.04 1009.32 1009.61 1009.97 1010.44 1011.06 1011.81 1012.65 1013.52 1014.36 1015.08 1015.64 1016.02 1016.21 1016.25 1016.20 1016.13 1016.09 1016.12
1010.82 1010.83 1010.78 1010.67 1010.51 1010.29 1010.00 1009.66 1009.23 1008.74 1008.18 1007.58 1006.99 1006.45 1006.02 1005.74 1005.65 1005.74 1006.00 1006.40 1006.88 1007.38 1007.85 1008.26 1008.60 1008.90 1009.20 1009.55 1009.99 1010.56 1011.27 1012.10 1012.98 1013.87 1014.69 1015.37 1015.87 1016.18 1016.31 1016.31 1016.23 1016.14 1016.09 1016.12
1011.27 1011.27 1011.18 1011.02 1010.78 1010.46 1010.06 1009.58 1009.03 1008.43 1007.80 1007.19 1006.62 1006.15 1005.81 1005.64 1005.64 1005.81 1006.11 1006.51 1006.97 1007.42 1007.84 1008.22 1008.55 1008.87 1009.22 1009.64 1010.17 1010.82 1011.59 1012.46 1013.35 1014.21 1014.97 1015.59 1016.02 1016.27 1016.34 1016.31 1016.22 1016.15 1016.13 1016.20
1011.81 1011.74 1011.60 1011.37 1011.06 1010.66 1010.18 1009.62 1009.00 1008.36 1007.71 1007.09 1006.55 1006.13 1005.84 1005.72 1005.75 1005.94 1006.24 1006.62 1007.04 1007.46 1007.86 1008.23 1008.59 1008.96 1009.39 1009.88 1010.49 1011.20 1012.00 1012.86 1013.72 1014.52 1015.20 1015.73 1016.09 1016.27 1016.33 1016.29 1016.23 1016.20 1016.24 1016.37
1012.36 1012.20 1011.97 1011.66 1011.28 1010.82 1010.29 1009.69 1009.06 1008.40 1007.76 1007.16 1006.64 1006.24 1005.98 1005.86 1005.90 1006.07 1006.34 1006.69 1007.08 1007.49 1007.90 1008.30 1008.72 1009.17 1009.67 1010.25 1010.91 1011.66 1012.46 1013.28 1014.07 1014.78 1015.36 1015.80 1016.09 1016.23 1016.28 1016.28 1016.28 1016.32 1016.44 1016.65
1012.85 1012.57 1012.22 1011.82 1011.36 1010.85 1010.29 1009.69 1009.06 1008.42 1007.81 1007.24 1006.75 1006.37 1006.11 1005.98 1006.00 1006.14 1006.38 1006.70 1007.08 1007.50 1007.95 1008.41 1008.91 1009.45 1010.04 1010.69 1011.39 1012.15 1012.92 1013.67 1014.36 1014.97 1015.45 1015.80 1016.03 1016.16 1016.23 1016.28 1016.36 1016.50 1016.72 1017.01
1013.18 1012.76 1012.28 1011.78 1011.24 1010.69 1010.11 1009.51 1008.91 1008.32 1007.75 1007.23 1006.78 1006.41 1006.15 1006.02 1006.01 1006.12 1006.34 1006.66 1007.05 1007.50 1008.01 1008.55 1009.14 1009.77 1010.44 1011.14 1011.87 1012.61 1013.32 1013.99 1014.58 1015.08 1015.46 1015.74 1015.94 1016.07 1016.18 1016.30 1016.47 1016.71 1017.02 1017.39
1013.28 1012.71 1012.11 1011.50 1010.89 1010.29 1009.71 1009.14 1008.58 1008.05 1007.54 1007.07 1006.66 1006.33 1006.09 1005.96 1005.95 1006.05 1006.27 1006.60 1007.02 1007.52 1008.10 1008.72 1009.40 1010.11 1010.84 1011.57 1012.30 1013.00 1013.65 1014.22 1014.71 1015.11 1015.41 1015.64 1015.81 1015.96 1016.12 1016.32 1016.58 1016.90 1017.29 1017.72
1013.10 1012.41 1011.70 1011.00 1010.33 1009.70 1009.12 1008.58 1008.08 1007.61 1007.18 1006.78 1006.44 1006.15 1005.95 1005.85 1005.85 1005.97 1006.21 1006.57 1007.03 1007.59 1008.23 1008.93 1009.68 1010.44 1011.20 1011.95 1012.65 1013.30 1013.87 1014.35 1014.75 1015.07 1015.31 1015.51 1015.67 1015.85 1016.06 1016.33 1016.65 1017.04 1017.48 1017.94
1012.67 1011.88 1011.09 1010.32 1009.61 1008.98 1008.41 1007.91 1007.47 1007.08 1006.73 1006.42 1006.15 1005.94 1005.79 1005.74 1005.79 1005.95 1006.22 1006.62 1007.13 1007.74 1008.44 1009.18 1009.97 1010.75 1011.52 1012.24 1012.90 1013.49 1013.98 1014.39 1014.72 1014.97 1015.18 1015.36 1015.54 1015.75 1016.00 1016.32 1016.69 1017.11 1017.57 1018.02
1012.05 1011.20 1010.36 1009.57 1008.85 1008.22 1007.68 1007.23 1006.86 1006.54 1006.28 1006.06 1005.88 1005.75 1005.68 1005.69 1005.80 1006.02 1006.34 1006.79 1007.34 1007.98 1008.70 1009.47 1010.25 1011.02 1011.76 1012.44 1013.04 1013.56 1014.00 1014.34 1014.62 1014.85 1015.04 1015.23 1015.43 1015.67 1015.96 1016.30 1016.69 1017.12 1017.56 1017.98
Thickness
5807 5793 5784 5792 5797 5797 5792 5784 5779 5789 5803 5796 5788 5788 5794 5798 5796 5792 5789 5786 5784 5783 5785 5784 5781 5779 5776 5773 5770 5768 5766 5765 5763 5760 5758 5756 5755 5755 5755 5755 5755 5755 5754 5754
5789 5784 5800 5806 5804 5798 5791 5782 5781 5790 5802 5795 5785 5786 5794 5797 5796 5796 5793 5789 5787 5784 5783 5782 5780 5778 5776 5774 5772 5769 5768 5766 5765 5763 5761 5759 5757 5756 5756 5755 5755 5755 5754 5754
5785 5794 5808 5804 5797 5791 5788 5783 5783 5783 5791 5791 5784 5777 5785 5793 5797 5797 5796 5794 5791 5788 5784 5783 5781 5779 5777 5775 5773 5772 5769 5767 5766 5765 5762 5760 5757 5755 5754 5753 5753 5754 5754 5753
5788 5800 5803 5797 5794 5793 5780 5796 5794 5788 5774 5762 5772 5752 5774 5783 5786 5791 5793 5793 5791 5791 5788 5785 5783 5780 5779 5778 5777 5774 5771 5768 5766 5765 5762 5759 5755 5752 5753 5753 5753 5754 5754 5753
5785 5797 5796 5792 5797 5799 5791 5800 5793 5784 5770 5758 5762 5752 5763 5778 5779 5787 5793 5795 5795 5794 5791 5788 5785 5784 5783 5782 5779 5776 5772 5769 5767 5765 5763 5760 5757 5756 5755 5754 5753 5753 5753 5753
5790 5802 5802 5801 5805 5805 5800 5789 5778 5765 5756 5741 5752 5748 5754 5768 5780 5789 5795 5798 5798 5797 5794 5791 5789 5786 5783 5781 5779 5776 5772 5769 5767 5766 5764 5761 5758 5756 5754 5753 5752 5752 5752 5751
5776 5787 5798 5803 5792 5794 5789 5765 5740 5736 5727 5732 5751 5748 5756 5783 5792 5796 5796 5798 5799 5798 5795 5790 5787 5785 5783 5780 5778 5776 5772 5769 5767 5765 5763 5762 5760 5758 5755 5754 5753 5751 5750 5750
5755 5756 5783 5793 5789 5779 5777 5767 5738 5725 5721 5730 5744 5742 5767 5790 5798 5802 5802 5801 5799 5797 5794 5791 5789 5786 5784 5782 5779 5776 5772 5770 5768 5766 5764 5763 5761 5759 5757 5755 5754 5753 5752 5751
5748 5753 5783 5792 5796 5788 5771 5761 5763 5738 5731 5725 5732 5748 5771 5790 5792 5795 5797 5797 5796 5795 5793 5790 5788 5786 5784 5782 5780 5777 5773 5770 5768 5767 5765 5762 5760 5759 5758 5756 5755 5754 5753 5752
5759 5752 5770 5782 5788 5782 5778 5763 5745 5732 5718 5715 5729 5738 5748 5772 5778 5785 5789 5790 5792 5793 5791 5789 5787 5786 5784 5782 5779 5776 5773 5770 5769 5767 5764 5763 5760 5760 5758 5756 5754 5753 5752 5751
5759 5746 5754 5763 5762 5761 5762 5754 5740 5728 5727 5715 5713 5733 5769 5772 5777 5780 5784 5788 5790 5791 5790 5788 5786 5785 5783 5780 5777 5774 5771 5768 5767 5765 5764 5762 5760 5759 5757 5755 5754 5753 5752 5751
5750 5736 5731 5747 5765 5771 5765 5755 5742 5731 5722 5718 5717 5734 5777 5775 5779 5780 5782 5785 5787 5788 5788 5787 5784 5781 5778 5776 5775 5772 5769 5767 5765 5764 5762 5760 5758 5757 5755 5753 5752 5751 5749 5749
5746 5729 5717 5725 5739 5753 5753 5750 5743 5732 5720 5712 5715 5736 5772 5772 5774 5777 5778 5780 5782 5782 5782 5780 5778 5776 5775 5774 5772 5770 5768 5765 5764 5762 5760 5757 5755 5753 5752 5750 5749 5747 5746 5746
5749 5724 5719 5716 5725 5738 5741 5744 5741 5733 5718 5715 5723 5738 5755 5762 5766 5770 5772 5774 5776 5776 5775 5774 5772 5771 5772 5771 5770 5768 5765 5764 5761 5759 5757 5754 5753 5751 5749 5746 5745 5743 5743 5742
5740 5721 5725 5730 5739 5740 5738 5738 5738 5734 5731 5726 5732 5736 5747 5756 5760 5764 5766 5768 5768 5769 5769 5769 5767 5766 5767 5766 5765 5764 5763 5761 5759 5756 5753 5752 5751 5749 5746 5744 5742 5741 5739 5738
5725 5718 5720 5722 5731 5732 5728 5733 5735 5734 5734 5732 5734 5737 5752 5755 5757 5757 5759 5761 5761 5762 5764 5764 5764 5763 5761 5761 5762 5761 5759 5757 5754 5752 5750 5749 5747 5745 5742 5740 5739 5737 5735 5733
5711 5710 5704 5703 5717 5721 5711 5725 5728 5728 5733 5734 5729 5739 5747 5746 5748 5750 5752 5754 5755 5756 5757 5758 5759 5759 5758 5757 5757 5755 5754 5753 5750 5747 5746 5744 5741 5739 5737 5736 5733 5732 5730 5728
5706 5699 5690 5691 5703 5693 5712 5732 5732 5727 5729 5733 5736 5740 5742 5742 5744 5746 5748 5748 5748 5750 5751 5752 5752 5752 5752 5751 5750 5749 5747 5745 5744 5742 5740 5738 5735 5734 5732 5731 5727 5725 5724 5723
5707 5698 5684 5679 5681 5692 5711 5724 5725 5720 5719 5731 5732 5735 5735 5738 5738 5737 5743 5744 5744 5745 5745 5745 5746 5746 5745 5743 5743 5742 5739 5738 5735 5733 5732 5731 5729 5728 5726 5724 5722 5720 5718 5717
5696 5694 5684 5676 5679 5680 5705 5725 5729 5721 5710 5728 5730 5728 5727 5729 5719 5725 5736 5737 5737 5738 5738 5738 5738 5737 5735 5736 5736 5733 5731 5729 5727 5726 5725 5725 5724 5722 5720 5718 5716 5714 5711 5710
5681 5677 5675 5673 5677 5687 5711 5721 5721 5700 5707 5723 5724 5723 5722 5719 5720 5724 5728 5729 5730 5730 5731 5732 5732 5730 5728 5728 5728 5725 5723 5722 5722 5721 5719 5718 5716 5715 5713 5711 5709 5707 5704 5702
5672 5669 5667 5666 5670 5682 5709 5710 5705 5705 5714 5716 5718 5718 5717 5717 5719 5719 5719 5721 5722 5722 5723 5723 5723 5721 5721 5720 5719 5717 5715 5716 5715 5714 5712 5710 5709 5707 5705 5702 5700 5697 5695 5691
5668 5672 5671 5673 5679 5693 5700 5702 5706 5707 5707 5710 5711 5713 5713 5712 5712 5712 5712 5713 5714 5714 5714 5714 5713 5711 5711 5711 5710 5708 5709 5709 5707 5705 5703 5701 5700 5698 5696 5693 5690 5687 5685 5682
5669 5671 5668 5671 5680 5689 5694 5698 5702 5705 5705 5707 5708 5709 5709 5706 5706 5705 5705 5705 5705 5705 5705 5704 5703 5702 5701 5701 5701 5701 5701 5700 5698 5695 5693 5692 5690 5688 5687 5684 5682 5679 5676 5673
5665 5666 5664 5666 5676 5682 5688 5692 5696 5699 5702 5702 5703 5703 5702 5701 5699 5698 5697 5696 5696 5696 5696 5696 5695 5694 5692 5692 5692 5692 5692 5691 5689 5687 5684 5682 5680 5679 5676 5674 5672 5670 5668 5665
5662 5663 5663 5664 5673 5673 5679 5687 5691 5692 5693 5694 5694 5694 5695 5695 5693 5692 5690 5689 5688 5687 5687 5687 5686 5685 5684 5684 5684 5684 5684 5683 5680 5677 5675 5673 5671 5669 5667 5664 5661 5660 5658 5656